{"data":{"norad_id":67166,"intl_designator":"2025-303D","name":"STARLINK-36174","alt_names":[],"object_type":"PAYLOAD","status":"ACTIVE","operator":null,"country":"US","launch_date":"2025-12-17","launch_site_code":"AFETR","launch_vehicle":null,"mission":null,"orbit_class":"UNKNOWN","rcs_meters":null,"size_class":null,"mass_kg":null,"dimensions":null,"purposes":["comms"],"wikipedia_slug":null,"has_3d_model":false,"image_url":null,"decayed_at":null,"tle_current":{"epoch":"2026-09-20T09:20:18.054240Z","epoch_age_seconds":87762,"freshness":"FRESH","line1":"1 67166U 25303D   26263.38909785  .00010520  00000+0  39118-3 0  9999","line2":"2 67166  43.0011 291.0082 0001719 282.0716  77.9943 15.27586220 42512","mean_motion":15.2758622,"eccentricity":0.0001719,"inclination_deg":43.0011,"raan_deg":291.0082,"arg_perigee_deg":282.0716,"mean_anomaly_deg":77.9943,"bstar":0.00039118,"rev_number":4251,"period_min":94.266364879882,"perigee_km":481.85103649692,"apogee_km":484.20990587351,"semimajor_km":6861.1674711852,"source":"CELESTRAK","updated_at":"2026-09-21T09:00:36.110477Z"}}}